Date String (YYYY-MM-DD hh:mm:ss) UTC,Instrument flags,absolute air pressure of the measurement (hPa),sample flow rate (lpm),inlet stack bypass flow (lpm),air temperature of the measurement (°C),ambient temperature measured by the external sensor (°C),aerosol sample conditioner tube jacket temperature (°C),OPC LED temperature (°C),internal box temperature (°C),relative humidity of the measurement (%),span deviation,mass concentration of particles derived from Lorenz-Mie calculation of OPC scattering (μg/m³),mass concentration of particles derived from Lorenz-Mie calculation of OPC scattering (μg/m³),mass concentration of particles derived from Lorenz-Mie calculation of OPC scattering (μg/m³)
DateTimeUTC,F1_M11,P_M11,Q1_M11,Q2_M11,T1_M11,T2_M11,T3_M11,T4_M11,T5_M11,U1_M11,ZSPAN_M11,X0_M11,X2_M11,X1_M11
2023-10-29 06:00:00,SystemResetWarning,0835.1,5.00,000.00,021.8,021.1,000.0,030.1,023.4,14.1,0000.0,0008.87,0006.28,0005.92
2023-10-29 06:01:00,SystemResetWarning,0835.1,5.01,000.00,021.8,020.9,000.0,030.1,023.4,14.1,0000.0,0008.85,0006.26,0005.89
2023-10-29 06:02:00,SystemResetWarning,0835.1,5.00,000.00,021.8,020.8,000.0,030.1,023.3,14.1,0000.0,0008.78,0006.21,0005.87
2023-10-29 06:03:00,SystemResetWarning,0835.1,5.00,000.00,021.8,020.7,000.0,030.1,023.3,14.1,0000.0,0008.83,0006.19,0005.86
2023-10-29 06:04:00,SystemResetWarning,0835.2,5.00,000.00,021.8,020.6,000.0,030.1,023.3,14.2,0000.0,0008.78,0006.14,0005.81
2023-10-29 06:05:00,SystemResetWarning,0835.2,5.00,000.00,021.8,020.6,000.0,030.1,023.3,14.2,0000.0,0008.79,0006.12,0005.78
2023-10-29 06:06:00,SystemResetWarning,0835.2,5.00,000.00,021.7,020.5,000.0,030.1,023.2,14.2,0000.0,0008.83,0006.10,0005.75
2023-10-29 06:07:00,SystemResetWarning,0835.2,5.00,000.00,021.7,020.4,000.0,030.1,023.2,14.2,0000.0,0008.80,0006.07,0005.72
2023-10-29 06:08:00,SystemResetWarning,0835.2,5.00,000.00,021.7,020.4,000.0,030.1,023.2,14.2,0000.0,0008.77,0006.05,0005.71
2023-10-29 06:09:00,SystemResetWarning,0835.2,5.00,000.00,021.7,020.4,000.0,030.1,023.2,14.2,0000.0,0008.77,0006.05,0005.71
2023-10-29 06:10:00,SystemResetWarning,0835.3,5.00,000.00,021.7,020.3,000.0,030.1,023.2,14.2,0000.0,0008.70,0006.05,0005.72
2023-10-29 06:11:00,SystemResetWarning,0835.3,5.01,000.00,021.7,020.3,000.0,030.1,023.2,14.2,0000.0,0008.49,0006.03,0005.72
2023-10-29 06:12:00,SystemResetWarning,0835.3,5.00,000.00,021.7,020.3,000.0,030.1,023.2,14.2,0000.0,0008.49,0006.02,0005.72
2023-10-29 06:13:00,SystemResetWarning,0835.3,4.99,000.00,021.7,020.3,000.0,030.1,023.2,14.2,0000.0,0008.46,0006.01,0005.73
2023-10-29 06:14:00,SystemResetWarning,0835.3,5.00,000.00,021.7,020.3,000.0,030.1,023.1,14.2,0000.0,0008.50,0006.04,0005.74
2023-10-29 06:15:00,SystemResetWarning,0835.3,5.00,000.00,021.7,020.3,000.0,030.1,023.1,14.2,0000.0,0008.55,0006.07,0005.75
2023-10-29 06:16:00,SystemResetWarning,0835.3,5.00,000.00,021.6,020.2,000.0,030.0,023.1,14.1,0000.0,0008.58,0006.09,0005.77
2023-10-29 06:17:00,SystemResetWarning,0835.3,4.99,000.00,021.6,020.2,000.0,030.0,023.1,14.1,0000.0,0008.52,0006.10,0005.79
2023-10-29 06:18:00,SystemResetWarning,0835.3,5.01,000.00,021.6,020.2,000.0,030.0,023.1,14.1,0000.0,0008.55,0006.13,0005.81
2023-10-29 06:19:00,SystemResetWarning,0835.3,5.01,000.00,021.6,020.2,000.0,030.0,023.1,14.1,0000.0,0008.51,0006.13,0005.83
2023-10-29 06:20:00,SystemResetWarning,0835.2,5.00,000.00,021.6,020.2,000.0,030.0,023.1,14.0,0000.0,0008.53,0006.15,0005.84
2023-10-29 06:21:00,SystemResetWarning,0835.2,4.99,000.00,021.6,020.3,000.0,030.0,023.2,14.0,0000.0,0008.49,0006.15,0005.85
2023-10-29 06:22:00,SystemResetWarning,0835.3,5.01,000.00,021.7,020.9,000.0,029.9,023.5,13.9,0000.0,0008.55,0006.19,0005.86
2023-10-29 06:23:00,SystemResetWarning,0835.3,4.99,000.00,021.8,021.6,000.0,029.9,023.7,13.8,0000.0,0008.57,0006.21,0005.88
2023-10-29 06:24:00,SystemResetWarning,0835.3,4.99,000.00,021.9,021.6,000.0,030.0,023.7,13.8,0000.0,0008.59,0006.24,0005.90
2023-10-29 06:25:00,SystemResetWarning,0835.3,5.01,000.00,021.9,021.5,000.0,030.0,023.6,13.8,0000.0,0008.50,0006.22,0005.91
2023-10-29 06:26:00,SystemResetWarning,0835.3,5.00,000.00,021.9,021.3,000.0,030.1,023.5,13.7,0000.0,0008.42,0006.21,0005.93
2023-10-29 06:27:00,SystemResetWarning,0835.3,5.00,000.00,021.9,021.2,000.0,030.1,023.4,13.7,0000.0,0008.43,0006.22,0005.94
2023-10-29 06:28:00,SystemResetWarning,0835.3,5.00,000.00,021.8,021.0,000.0,030.1,023.4,13.7,0000.0,0008.55,0006.26,0005.96
2023-10-29 06:29:00,SystemResetWarning,0835.2,5.00,000.00,021.8,020.9,000.0,030.1,023.4,13.7,0000.0,0008.60,0006.27,0005.98
2023-10-29 06:30:00,SystemResetWarning,0835.2,5.00,000.00,021.8,020.8,000.0,030.1,023.3,13.7,0000.0,0008.65,0006.31,0006.00
2023-10-29 06:31:00,SystemResetWarning,0835.2,5.01,000.00,021.8,020.7,000.0,030.1,023.3,13.7,0000.0,0008.65,0006.31,0006.01
2023-10-29 06:32:00,SystemResetWarning,0835.2,5.00,000.00,021.8,020.6,000.0,030.1,023.3,13.7,0000.0,0008.70,0006.32,0006.01
2023-10-29 06:33:00,SystemResetWarning,0835.3,5.00,000.00,021.8,020.6,000.0,030.1,023.2,13.6,0000.0,0008.73,0006.32,0006.01
2023-10-29 06:34:00,SystemResetWarning,0835.3,4.99,000.00,021.7,020.5,000.0,030.1,023.2,13.6,0000.0,0008.71,0006.30,0005.99
2023-10-29 06:35:00,SystemResetWarning,0835.2,4.99,000.00,021.7,020.4,000.0,030.1,023.2,13.6,0000.0,0008.76,0006.32,0005.99
2023-10-29 06:36:00,SystemResetWarning,0835.2,5.00,000.00,021.7,020.4,000.0,030.1,023.2,13.6,0000.0,0008.82,0006.35,0005.99
2023-10-29 06:37:00,SystemResetWarning,0835.2,4.99,000.00,021.7,020.4,000.0,030.1,023.2,13.6,0000.0,0008.86,0006.38,0006.00
2023-10-29 06:38:00,SystemResetWarning,0835.2,5.00,000.00,021.7,020.3,000.0,030.1,023.2,13.6,0000.0,0008.81,0006.37,0006.00
2023-10-29 06:39:00,SystemResetWarning,0835.2,5.00,000.00,021.7,020.3,000.0,030.1,023.2,13.6,0000.0,0008.68,0006.33,0005.99
2023-10-29 06:40:00,SystemResetWarning,0835.1,5.01,000.00,021.7,020.3,000.0,030.1,023.1,13.6,0000.0,0008.56,0006.28,0005.96
2023-10-29 06:41:00,SystemResetWarning,0835.1,5.00,000.00,021.7,020.3,000.0,030.1,023.1,13.6,0000.0,0008.59,0006.27,0005.93
2023-10-29 06:42:00,SystemResetWarning,0835.0,5.00,000.00,021.7,020.3,000.0,030.1,023.1,13.6,0000.0,0008.53,0006.23,0005.90
2023-10-29 06:43:00,SystemResetWarning,0835.0,4.99,000.00,021.7,020.3,000.0,030.1,023.2,13.6,0000.0,0008.42,0006.17,0005.87
2023-10-29 06:44:00,SystemResetWarning,0835.0,5.00,000.00,021.7,020.2,000.0,030.1,023.1,13.6,0000.0,0008.36,0006.15,0005.87
2023-10-29 06:45:00,SystemResetWarning,0834.9,5.00,000.00,021.6,020.2,000.0,030.1,023.1,13.6,0000.0,0008.34,0006.14,0005.87
2023-10-29 06:46:00,SystemResetWarning,0835.0,5.00,000.00,021.6,020.2,000.0,030.0,023.1,13.6,0000.0,0008.25,0006.10,0005.85
2023-10-29 06:47:00,SystemResetWarning,0835.0,5.00,000.00,021.6,020.2,000.0,030.0,023.1,13.6,0000.0,0008.16,0006.05,0005.83
2023-10-29 06:48:00,SystemResetWarning,0835.0,5.01,000.00,021.6,020.2,000.0,030.0,023.1,13.6,0000.0,0008.44,0006.00,0005.79
2023-10-29 06:49:00,SystemResetWarning,0835.0,5.01,000.00,021.6,020.2,000.0,030.0,023.2,13.6,0000.0,0008.55,0005.96,0005.75
2023-10-29 06:50:00,SystemResetWarning,0835.0,5.01,000.00,021.7,020.7,000.0,029.9,023.4,13.5,0000.0,0008.56,0005.95,0005.73
2023-10-29 06:51:00,SystemResetWarning,0835.0,5.00,000.00,021.8,021.5,000.0,029.9,023.7,13.4,0000.0,0008.50,0005.90,0005.69
2023-10-29 06:52:00,SystemResetWarning,0835.1,4.99,000.00,021.9,021.6,000.0,030.0,023.7,13.4,0000.0,0008.39,0005.84,0005.65
2023-10-29 06:53:00,SystemResetWarning,0835.1,4.99,000.00,021.9,021.5,000.0,030.0,023.6,13.4,0000.0,0008.31,0005.79,0005.63
2023-10-29 06:54:00,SystemResetWarning,0835.0,5.01,000.00,021.9,021.4,000.0,030.1,023.5,13.4,0000.0,0008.30,0005.76,0005.58
2023-10-29 06:55:00,SystemResetWarning,0835.0,5.01,000.00,021.9,021.2,000.0,030.1,023.5,13.4,0000.0,0008.19,0005.68,0005.52
2023-10-29 06:56:00,SystemResetWarning,0835.0,5.01,000.00,021.9,021.1,000.0,030.1,023.4,13.4,0000.0,0008.08,0005.61,0005.46
2023-10-29 06:57:00,SystemResetWarning,0835.0,4.99,000.00,021.8,021.0,000.0,030.1,023.4,13.4,0000.0,0008.03,0005.57,0005.41
2023-10-29 06:58:00,SystemResetWarning,0834.9,4.99,000.00,021.8,020.9,000.0,030.1,023.3,13.4,0000.0,0007.99,0005.52,0005.36
2023-10-29 06:59:00,SystemResetWarning,0834.9,5.00,000.00,021.8,020.8,000.0,030.1,023.3,13.4,0000.0,0007.70,0005.48,0005.32
